Regional Weather Roundup
Issued by NWS

Home | Current Version | Previous Version | Text Only | Print | Product List | Glossary On
Versions: 1 2 3 4 5 6 7 8 9 10 11 12 13 14 15 16 17 18 19 20 21 22 23 24 25 26 27 28 29 30 31 32 33 34 35 36 37 38 39 40 41 42 43 44 45 46 47 48 49 50
000
ASUS44 KFWD 231815
RWRTX
NORTH TEXAS HOURLY WEATHER ROUNDUP
NATIONAL WEATHER SERVICE FORT WORTH TX
100 PM CDT WED JUL 23 2014

NOTE: "FAIR" INDICATES FEW OR NO CLOUDS BELOW 12,000 FEET WITH NO
SIGNIFICANT WEATHER AND/OR OBSTRUCTIONS TO VISIBILITY.

TXZ118-119-231900-
DALLAS/FORT WORTH METROPLEX

CITY           SKY/WX    TMP DP  RH WIND       PRES   REMARKS
DFW AIRPORT    MOSUNNY   92  67  43 NE8       30.09F HX  95
6HR MIN TEMP:  76; 6HR MAX TEMP:  93;

DALLAS LOVE    MOSUNNY   92  68  45 VRB7      30.08F HX  96
6HR MIN TEMP:  76; 6HR MAX TEMP:  92;

FTW MEACHAM    MOSUNNY   91  67  44 E5        30.09F HX  94
6HR MIN TEMP:  77; 6HR MAX TEMP:  93;

DAL-EXECUTIVE  SUNNY     91  66  43 CALM      30.10S HX  93
6HR MIN TEMP:  73; 6HR MAX TEMP:  92;

FTW-ALLIANCE   MOSUNNY   89  69  51 VRB5      30.10F HX  93
6HR MIN TEMP:  70; 6HR MAX TEMP:  90;

FTW-NAS-JRB    MOSUNNY   94  67  41 VRB3      30.14F HX  97
6HR MIN TEMP:  77; 6HR MAX TEMP:  94; 6HR PCP: TRACE;

FTW-SPINKS     SUNNY     91  63  38 SE5       30.12S HX  92
ARLINGTON      SUNNY     90  65  43 SE5       30.10F HX  92
6HR MIN TEMP:  72; 6HR MAX TEMP:  91;

GRAND PRAIRIE  SUNNY     90  64  43 E5        30.10  HX  91
ADDISON        MOSUNNY   90  66  45 E5        30.10F HX  92
MESQUITE       SUNNY     90  66  45 CALM      30.09F HX  92
LANCASTER      SUNNY     89  64  42 E3        30.11S HX  90
6HR MIN TEMP:  67; 6HR MAX TEMP:  89;

$$

TXZ091>094-102>105-117-120-121-131>134-231900-
NORTH CENTRAL TEXAS

CITY           SKY/WX    TMP DP  RH WIND       PRES   REMARKS
SHRMAN/DENISON PTSUNNY   89  69  51 W3        30.10F HX  94
6HR MIN TEMP:  73; 6HR MAX TEMP:  90;

GAINESVILLE    SUNNY     89  70  53 CALM      30.12F HX  94
6HR MIN TEMP:  72; 6HR MAX TEMP:  90;

BOWIE          MOSUNNY   88  71  58 CALM      30.13S HX  94
6HR MIN TEMP:  71; 6HR MAX TEMP:  89;

BRIDGEPORT     SUNNY     90  67  47 E7        30.13F HX  93
6HR MIN TEMP:  70; 6HR MAX TEMP:  90;

DECATUR        SUNNY     89  69  50 E5        30.13S HX  93
6HR MIN TEMP:  74; 6HR MAX TEMP:  89;

DENTON         MOSUNNY   90  70  51 CALM      30.10F HX  95
6HR MIN TEMP:  72; 6HR MAX TEMP:  90;

MCKINNEY         N/A     89  70  53 CALM      30.10F HX  94
GREENVILLE     SUNNY     90  68  48 CALM      30.10F HX  93
ROCKWALL       SUNNY     89  70  53 N3        30.09F HX  95
6HR MIN TEMP:  72; 6HR MAX TEMP:  89;

TERRELL        SUNNY     92  64  39 CALM      30.09F HX  93
6HR MIN TEMP:  70; 6HR MAX TEMP:  92;

WAXAHACHIE     SUNNY     89  60  37 CALM      30.11F
6HR MIN TEMP:  69; 6HR MAX TEMP:  90;

CLEBURNE       SUNNY     90  68  48 N6        30.12F HX  93
GRANBURY       MOSUNNY   92  69  45 E5        30.11F HX  97
6HR MIN TEMP:  74; 6HR MAX TEMP:  92;

$$

TXZ083>090-098>101-113>116-127>130-139>142-154-155-231900-
WESTERN NORTH TEXAS

CITY           SKY/WX    TMP DP  RH WIND       PRES   REMARKS
WICHITA FALLS  SUNNY     91  72  53 VRB5      30.11F HX  98
6HR MIN TEMP:  74; 6HR MAX TEMP:  92;

WF-KICKAPOO    SUNNY     91  69  47 CALM      30.13S HX  95
6HR MIN TEMP:  74; 6HR MAX TEMP:  91;

VERNON         SUNNY     94  66  40 CALM      30.14S HX  96
ABILENE        SUNNY     94  65  38 NE7       30.15F HX  96
6HR MIN TEMP:  74; 6HR MAX TEMP:  94;

ABILENE-DYESS  MOSUNNY   93  64  37 NE9       30.14F HX  95
6HR MIN TEMP:  74; 6HR MAX TEMP:  93;

BRECKENRIDGE   MOSUNNY   95  64  36 E5        30.11F HX  97
6HR MIN TEMP:  75; 6HR MAX TEMP:  95;

MINERAL WELLS  MOSUNNY   93  69  45 NE7       30.10F HX  98
6HR MIN TEMP:  73; 6HR MAX TEMP:  93;

STEPHENVILLE   MOSUNNY   90  68  47 E8        30.15F HX  94
6HR MIN TEMP:  74; 6HR MAX TEMP:  91;

COMANCHE       MOSUNNY   90  68  49 E6        30.13S HX  94
6HR MIN TEMP:  73; 6HR MAX TEMP:  91;

BROWNWOOD      LGT RAIN  91  66  43 E8        30.12F HX  94
COLEMAN        MOSUNNY   91  65  42 E6        30.15S HX  94
6HR MIN TEMP:  72; 6HR MAX TEMP:  91;

BRADY          MOSUNNY   90  68  48 VRB5      30.14S HX  93
$$

TXZ143>147-156>162-174-175-231900-
CENTRAL TEXAS

CITY           SKY/WX    TMP DP  RH WIND       PRES   REMARKS
WACO           MOSUNNY   92  69  47 E8        30.09F HX  97
6HR MIN TEMP:  73; 6HR MAX TEMP:  93;

WACO-TSTC      SUNNY     91  66  43 CALM      30.08F HX  94
WACO-MCGREGOR  SUNNY     91  70  49 E6        30.10S HX  97
6HR MIN TEMP:  73; 6HR MAX TEMP:  91;

HILLSBORO      SUNNY     91  65  42 N7        30.10S HX  93
6HR MIN TEMP:  72; 6HR MAX TEMP:  91;

CORSICANA      MOSUNNY   89  68  49 E8        30.10F HX  93
6HR MIN TEMP:  73; 6HR MAX TEMP:  90;

MEXIA          MOSUNNY   86  69  55 CALM      30.09S HX  90
6HR MIN TEMP:  73; 6HR MAX TEMP:  88;

HEARNE         MOSUNNY   95  74  50 N6        30.07F HX 106
6HR MIN TEMP:  80; 6HR MAX TEMP:  95;

CAMERON        SUNNY     89  70  52 NE5       30.07S HX  95
6HR MIN TEMP:  76; 6HR MAX TEMP:  91;

TEMPLE         MOSUNNY   91  68  46 NE10      30.09F HX  95
6HR MIN TEMP:  75; 6HR MAX TEMP:  93;

KILLEEN        MOSUNNY   90  72  55 NW8       30.09F HX  96
KILLEEN-SKYLRK PTSUNNY   90  70  51 E7        30.08F HX  95
6HR MIN TEMP:  77; 6HR MAX TEMP:  90;

FORT HOOD      SUNNY     95  70  44 VRB6      30.09F HX 101
6HR MIN TEMP:  79; 6HR MAX TEMP:  95;

GATESVILLE     SUNNY     90  68  48 N5        30.11F HX  93
HAMILTON       MOSUNNY   88  69  51 N7        30.13F HX  92
6HR MIN TEMP:  75; 6HR MAX TEMP:  90;

LAMPASAS       SUNNY     91  71  53 E6        30.10F HX  97
6HR MIN TEMP:  76; 6HR MAX TEMP:  91;

$$

TXZ095>097-106>112-122>126-135>138-148>153-164>167-231900-
EAST TEXAS

CITY           SKY/WX    TMP DP  RH WIND       PRES   REMARKS
PARIS          SUNNY     90  72  55 N5        30.09F HX  96
6HR MIN TEMP:  72; 6HR MAX TEMP:  90;

SULPHUR SPRNGS SUNNY     89  70  52 W6        30.11F HX  94
6HR MIN TEMP:  71; 6HR MAX TEMP:  89;

CLARKSVILLE    SUNNY     90  71  52 CALM      30.08S HX  96
6HR MIN TEMP:  71; 6HR MAX TEMP:  91;

MOUNT PLEASANT MOSUNNY   89  69  52 CALM      30.10S HX  93
6HR MIN TEMP:  69; 6HR MAX TEMP:  89;

GILMER         SUNNY     90  70  51 E5        30.10F HX  95
MINEOLA        SUNNY     90  68  48 CALM      30.10S HX  93
TYLER          SUNNY     91  68  46 N5        30.09F HX  95
6HR MIN TEMP:  72; 6HR MAX TEMP:  91;

LONGVIEW       PTSUNNY   87  69  54 N5        30.08F HX  91
6HR MIN TEMP:  69; 6HR MAX TEMP:  90;

MARSHALL       MOSUNNY   90  72  55 NE3       30.10S HX  98
6HR MIN TEMP:  71; 6HR MAX TEMP:  91;

ATHENS         SUNNY     86  68  54 N3        30.08F
JACKSONVILLE   SUNNY     89  68  49 E5        30.12S HX  92
HENDERSON      MOSUNNY   89  68  49 SE5       30.09F HX  92
6HR MIN TEMP:  69; 6HR MAX TEMP:  90;

NACOGDOCHES    PTSUNNY   88  70  55 CALM      30.08S HX  92
6HR MIN TEMP:  68; 6HR MAX TEMP:  88;

LUFKIN         MOSUNNY   93  72  50 VRB6      30.07F HX 101
6HR MIN TEMP:  74; 6HR MAX TEMP:  94;

$$

SUPPLEMENTAL OBSERVATIONS (CENTRAL)

CITY           SKY/WX    TMP DP  RH WIND       PRES   REMARKS
LAKE TEXOMA      N/A     84  70  61 NW5         N/A
PAT MAYSE LAKE   N/A     88  73  62 S6          N/A  HX  96
GREENVILLE       N/A     90  72  55 W6          N/A  HX  96
CEDAR HILL       N/A     93  63  36 NE7         N/A  HX  94
ATHENS           N/A     91  68  46 SE7         N/A  HX  95
PALESTINE        N/A     91  70  49 NE3         N/A  HX  97
LAKE LIMESTONE   N/A     90  73  58 N5          N/A  HX  98
MCGREGOR         N/A     91  70  49 E3          N/A  HX  97
TEMPLE           N/A     91  68  46 NE7         N/A  HX  95
$$

SUPPLEMENTAL OBSERVATIONS (WEST)

CITY           SKY/WX    TMP DP  RH WIND       PRES   REMARKS
MILLERS CREEK    N/A     97  72  44 NE8         N/A  HX 105



USA.gov is the U.S. government's official web portal to all federal, state and local government web resources and services.